Location: Newark
(49.9819°N, 3.0344°E)
Time: 07:27:14
(UTC+00:00)

ISS - Pass Details

Date: 01 February 2020
Orbit: 415 x 422 km, 51.6° (Epoch: 22 February)

Event Time Altitude Azimuth Distance (km) Brightness Sun altitude
Rises 17:27:13 0° 277° (W) 2,380 1.5 -7.7°
Reaches altitude 10° 17:29:20 10° 280° (W) 1,514 0.2 -8.0°
Maximum altitude 17:32:43 64° 3° (N) 473 -3.6 -8.5°
Enters shadow 17:35:45 12° 85° (E) 1,375 -1.8 -9.0°
